[[{"header":{"parameterUnit":"m.s-1","parameterCategory":1,"la1":30.2991,"la2":30.254,"lo1":-89.0895,"lo2":-89.0444,"dy":0.0017,"dx":0.0017,"nx":28,"ny":28,"refTime":"2024-05-12T03:00:00:Z","depth":0,"parameterNumber":2,"parameterNumberName":"U-component_of_WINDS"},"data":[0,0,0,0,0,0,0,0,0,0,0,0,0,0,0,0,0,0,0,0,0,0,0,0,0,0,0,0,0,0,0,0,0,0,0,0,0,0,0,0,0,0,0,0,0,0,0,0,0,0,0,0,0,0,0,0,0,0,-0.087,-0.0871,0,-0.099,-0.0992,-0.0993,-0.1084,-0.1085,-0.1086,-0.1086,-0.1214,-0.1216,-0.1219,0,0,0,0,0,0,0,0,0,0,0,0,0,-0.0723,-0.0725,-0.0869,-0.0871,-0.0872,-0.099,-0.0992,-0.0993,-0.1084,-0.1085,-0.1086,-0.1087,-0.1213,-0.1216,-0.1219,0,0,0,0,0,0,0,0,0,0,0,0,0,-0.0809,-0.0726,-0.0869,-0.0932,-0.0939,-0.099,-0.0992,-0.0994,-0.1084,-0.1085,-0.1086,-0.1087,-0.1212,-0.1215,-0.1219,-0.1219,0,0,-0.1231,-0.1233,0,0,0,0,0,0,0,0,-0.0804,-0.0815,-0.0921,-0.0928,-0.0935,-0.1023,-0.0987,-0.1069,-0.1083,-0.1029,-0.1086,-0.1088,-0.1149,-0.1159,-0.1179,-0.1225,-0.123,-0.1232,-0.1234,-0.1236,-0.1237,0,0,0,0,0,0,0,-0.0798,-0.081,-0.0917,-0.0923,-0.0931,-0.0956,-0.0969,-0.1003,-0.1081,-0.1034,-0.104,-0.1053,-0.1154,-0.1175,-0.1182,-0.1232,-0.1232,-0.1235,-0.1237,-0.1239,-0.1288,-0.1287,0,0,0,0,0,0,-0.0782,-0.0805,-0.0914,-0.0921,-0.0871,-0.0957,-0.0973,-0.0994,-0.1081,-0.1095,-0.1052,-0.1057,-0.1167,-0.1178,-0.1187,-0.1194,-0.1236,-0.1239,-0.1242,-0.1289,-0.1287,-0.1286,0,0,0,0,0,0,-0.0778,-0.0791,-0.0909,-0.0865,-0.0882,-0.0958,-0.0982,-0.0996,-0.1017,-0.1095,-0.1109,-0.1059,-0.1169,-0.1182,-0.1211,-0.12,-0.1241,-0.1245,-0.129,-0.1288,-0.1287,-0.1207,0,0,0,0,0,0,-0.0774,-0.0789,-0.0788,-0.0864,-0.0883,-0.0928,-0.0981,-0.0997,-0.1023,-0.103,-0.1105,-0.1118,-0.1171,-0.1204,-0.1215,-0.1206,-0.1248,-0.1291,-0.1289,-0.1287,-0.1211,-0.1203,-0.1196,0,0,0,0,0,-0.0768,-0.0761,-0.0788,-0.08,-0.0884,-0.0927,-0.0939,-0.0998,-0.1021,-0.1022,-0.1073,-0.1116,-0.1199,-0.1207,-0.1219,-0.1211,-0.1292,-0.129,-0.1288,-0.1214,-0.1204,-0.1196,0,0,0,0,0,0,-0.0683,-0.0772,-0.0802,-0.0819,-0.0865,-0.0943,-0.0945,-0.0985,-0.1026,-0.1032,-0.1105,-0.1121,-0.1143,-0.118,-0.1187,-0.1217,-0.1252,-0.1251,-0.1192,-0.1183,-0.1175,-0.1166,-0.1251,0,0,0,0,0,-0.0665,-0.0692,-0.0769,-0.0777,-0.0798,-0.0867,-0.0889,-0.093,-0.0981,-0.1001,-0.1054,-0.1103,-0.1141,-0.1164,-0.1203,-0.1217,-0.1236,-0.1218,-0.121,-0.1204,-0.1203,-0.1216,-0.121,-0.1278,-0.1279,-0.1279,0,0,-0.0631,-0.0683,-0.0695,-0.0761,-0.0801,-0.0829,-0.0883,-0.091,-0.0932,-0.1006,-0.1037,-0.1077,-0.1137,-0.1159,-0.1172,-0.1191,-0.1189,-0.1201,-0.1195,-0.1198,-0.1213,-0.1206,-0.12,-0.1277,-0.1277,-0.1277,0,0,-0.0581,-0.0622,-0.0634,-0.0674,-0.0734,-0.0781,-0.0783,-0.0856,-0.0885,-0.0917,-0.0975,-0.1003,-0.1065,-0.1106,-0.1135,-0.1104,-0.1146,-0.1115,-0.1075,-0.1087,-0.1082,-0.1077,-0.1068,-0.1063,-0.1114,-0.1113,-0.1113,0,-0.0531,-0.0573,-0.0635,-0.0659,-0.0687,-0.0755,-0.0769,-0.0805,-0.0875,-0.0894,-0.0915,-0.0996,-0.1041,-0.1075,-0.1067,-0.1088,-0.1095,-0.1106,-0.1077,-0.1073,-0.107,-0.1062,-0.1058,-0.1109,-0.111,-0.111,-0.1111,0,-0.0509,-0.0537,-0.054,-0.0605,-0.0634,-0.0652,-0.0719,-0.0741,-0.0781,-0.0826,-0.086,-0.0916,-0.0969,-0.098,-0.1019,-0.102,-0.1031,-0.1063,-0.1099,-0.1058,-0.1052,-0.1049,-0.1103,-0.1105,-0.1106,-0.1107,0,0,-0.0407,-0.0508,-0.0508,-0.054,-0.0612,-0.0637,-0.066,-0.071,-0.0728,-0.0775,-0.0798,-0.085,-0.0881,-0.0914,-0.0959,-0.0969,-0.0943,-0.1001,-0.1004,-0.0989,-0.0951,-0.0926,-0.0921,-0.0972,-0.0971,-0.0971,-0.0946,0,-0.037,-0.0413,-0.0471,-0.0495,-0.0524,-0.059,-0.0611,-0.0658,-0.0702,-0.0734,-0.0783,-0.082,-0.0857,-0.0878,-0.0891,-0.0943,-0.0937,-0.0946,-0.0995,-0.0996,-0.0978,-0.0918,-0.0891,-0.0865,-0.0944,-0.0943,-0.0943,0,-0.0332,-0.0375,-0.0401,-0.0474,-0.0488,-0.0505,-0.0557,-0.0586,-0.0643,-0.0675,-0.0712,-0.0761,-0.0791,-0.0823,-0.0867,-0.0872,-0.0896,-0.0925,-0.0926,-0.0933,-0.0967,-0.0924,-0.0858,-0.0854,-0.094,-0.094,-0.094,0,-0.0257,-0.0322,-0.0346,-0.0371,-0.0456,-0.0466,-0.0503,-0.0561,-0.0588,-0.0635,-0.0654,-0.0703,-0.073,-0.0769,-0.0831,-0.0848,-0.0868,-0.0905,-0.0897,-0.0895,-0.0898,-0.0897,-0.0835,-0.0912,-0.0912,-0.0912,-0.0912,0,-0.021,-0.0224,-0.0314,-0.0329,-0.0348,-0.0416,-0.0433,-0.0476,-0.0527,-0.0554,-0.0615,-0.0639,-0.0719,-0.0753,-0.0802,-0.0832,-0.0843,-0.0871,-0.0884,-0.0866,-0.0863,-0.0883,-0.0887,-0.0911,-0.0911,-0.0912,-0.0912,0,-0.0129,-0.019,-0.0222,-0.0299,-0.0319,-0.033,-0.0398,-0.0416,-0.0464,-0.0497,-0.0509,-0.0584,-0.0628,-0.0693,-0.0757,-0.079,-0.0813,-0.0833,-0.0793,-0.0801,-0.0789,-0.079,-0.0739,-0.0736,-0.0813,-0.0812,-0.0811,0,-0.0095,-0.0108,-0.0187,-0.0208,-0.0242,-0.0276,-0.0304,-0.0372,-0.04,-0.0467,-0.0478,-0.0526,-0.0568,-0.0636,-0.0697,-0.0747,-0.077,-0.0749,-0.0778,-0.076,-0.0772,-0.077,-0.0773,-0.0742,-0.0741,-0.074,-0.0739,0,-0.0029,-0.0059,-0.0097,-0.0145,-0.0177,-0.0219,-0.0264,-0.0279,-0.0358,-0.0386,-0.0431,-0.0463,-0.0529,-0.0577,-0.0635,-0.0675,-0.0721,-0.0729,-0.073,-0.0712,-0.0689,-0.0703,-0.0775,-0.073,-0.0731,-0.0732,-0.0732,-0.0733,0.0027,0.0013,-0.0045,-0.0086,-0.0127,-0.0168,-0.019,-0.0241,-0.0279,-0.0336,-0.0375,-0.0418,-0.0478,-0.0561,-0.0599,-0.0635,-0.0654,-0.0655,-0.0656,-0.0655,-0.065,-0.0682,-0.0646,-0.0646,-0.0647,-0.0647,-0.0647,0,0.0089,0.0048,0.0012,-0.0049,-0.0082,-0.0121,-0.0174,-0.0199,-0.0236,-0.0287,-0.0327,-0.038,-0.0428,-0.0493,-0.0546,-0.0563,-0.0586,-0.0575,-0.0575,-0.0584,-0.0628,-0.0623,-0.0556,-0.0556,-0.0556,-0.0556,-0.0556,-0.0556,0.0117,0.009,0.0053,0.0003,-0.0039,-0.0081,-0.0108,-0.0147,-0.0188,-0.0244,-0.0283,-0.0326,-0.0384,-0.0442,-0.0488,-0.0507,-0.0524,-0.0507,-0.0532,-0.0572,-0.058,-0.0588,-0.0583,-0.0509,-0.0509,-0.0485,-0.0484,-0.0484]},{"header":{"parameterUnit":"m.s-1","parameterCategory":1,"la1":30.2991,"la2":30.254,"lo1":-89.0895,"lo2":-89.0444,"dy":0.0017,"dx":0.0017,"nx":28,"ny":28,"refTime":"2024-05-12T03:00:00:Z","depth":0,"parameterNumber":3,"parameterNumberName":"V-component_of_WINDS"},"data":[0,0,0,0,0,0,0,0,0,0,0,0,0,0,0,0,0,0,0,0,0,0,0,0,0,0,0,0,0,0,0,0,0,0,0,0,0,0,0,0,0,0,0,0,0,0,0,0,0,0,0,0,0,0,0,0,0,0,7.3595,7.3596,0,7.372,7.3721,7.3723,7.3686,7.3684,7.3681,7.3679,7.3803,7.3808,7.3814,0,0,0,0,0,0,0,0,0,0,0,0,0,7.3321,7.3327,7.3595,7.3596,7.3598,7.372,7.3722,7.3723,7.3687,7.3684,7.368,7.3678,7.3801,7.3807,7.3814,0,0,0,0,0,0,0,0,0,0,0,0,0,7.3443,7.3328,7.3595,7.3595,7.3596,7.3719,7.3722,7.3724,7.3687,7.3684,7.368,7.3676,7.3798,7.3807,7.3815,7.3945,0,0,7.3841,7.3845,0,0,0,0,0,0,0,0,7.3436,7.3453,7.3593,7.3595,7.3596,7.3684,7.367,7.3798,7.3688,7.3653,7.3679,7.3674,7.3766,7.3777,7.3809,7.3951,7.3956,7.3842,7.3847,7.3851,7.3853,0,0,0,0,0,0,0,7.3427,7.3447,7.3644,7.3595,7.3597,7.3587,7.36,7.3694,7.3729,7.3655,7.3653,7.3669,7.3766,7.38,7.3811,7.3958,7.3842,7.3849,7.3855,7.3858,7.4214,7.4218,0,0,0,0,0,0,7.3418,7.344,7.364,7.3648,7.3505,7.3595,7.361,7.366,7.3728,7.3735,7.3672,7.3666,7.3788,7.3801,7.3815,7.3973,7.3851,7.3859,7.3864,7.421,7.4215,7.422,0,0,0,0,0,0,7.3413,7.3437,7.3635,7.3544,7.3568,7.3604,7.366,7.3664,7.3698,7.3741,7.3746,7.3701,7.3785,7.3803,7.3914,7.3977,7.3863,7.387,7.4205,7.4212,7.4218,7.4288,0,0,0,0,0,0,7.3405,7.3435,7.3485,7.3545,7.3573,7.3733,7.3664,7.3669,7.3714,7.3708,7.3769,7.3776,7.3784,7.3901,7.3922,7.3986,7.3877,7.4199,7.4208,7.4215,7.4281,7.4296,7.431,0,0,0,0,0,7.3395,7.3499,7.3488,7.3512,7.3637,7.3736,7.3752,7.3761,7.3719,7.377,7.3797,7.3774,7.3967,7.3913,7.3936,7.4004,7.4195,7.4205,7.4215,7.4274,7.4293,7.431,0,0,0,0,0,0,7.3443,7.3507,7.3495,7.3621,7.3674,7.373,7.3794,7.3781,7.3845,7.3837,7.3843,7.3857,7.397,7.3998,7.3937,7.4134,7.4075,7.409,7.4112,7.413,7.4145,7.4136,7.3884,0,0,0,0,0,7.3469,7.3545,7.3596,7.3702,7.3729,7.3757,7.3801,7.3803,7.3857,7.3879,7.3914,7.3966,7.4038,7.4086,7.4155,7.4284,7.4297,7.4343,7.4357,7.4369,7.4382,7.4453,7.4474,7.4252,7.4252,7.4252,0,0,7.3522,7.3566,7.3613,7.3713,7.3754,7.3832,7.3776,7.3861,7.3919,7.3891,7.3998,7.4026,7.4084,7.4205,7.426,7.4232,7.4446,7.4382,7.4391,7.4397,7.4466,7.4487,7.4505,7.4259,7.4257,7.4256,0,0,7.3658,7.3699,7.3793,7.3836,7.39,7.3918,7.394,7.3999,7.4017,7.4125,7.4106,7.4174,7.4299,7.4342,7.438,7.4535,7.4517,7.4557,7.4634,7.4704,7.4722,7.4737,7.4793,7.4813,7.457,7.457,7.457,0,7.3716,7.3834,7.3843,7.393,7.3975,7.3955,7.405,7.409,7.4173,7.4203,7.4171,7.4328,7.4366,7.4497,7.4535,7.4567,7.4592,7.455,7.4719,7.4734,7.4749,7.4802,7.4823,7.4575,7.4574,7.4574,7.4573,0,7.3902,7.3984,7.4052,7.4134,7.4186,7.4277,7.4299,7.435,7.4348,7.437,7.448,7.4525,7.4604,7.4635,7.4633,7.4767,7.4747,7.4717,7.4657,7.4775,7.4825,7.4845,7.4581,7.458,7.4578,7.4577,0,0,7.4071,7.4158,7.4183,7.4221,7.429,7.4354,7.4443,7.4522,7.4566,7.4623,7.4699,7.4806,7.4779,7.4822,7.4825,7.4886,7.5007,7.4848,7.4849,7.4876,7.5157,7.518,7.5203,7.4995,7.4999,7.5002,7.5152,0,7.4214,7.4373,7.4385,7.4528,7.4605,7.4588,7.4666,7.4717,7.474,7.4807,7.4831,7.4907,7.4865,7.4892,7.4952,7.4979,7.5063,7.4969,7.5064,7.5068,7.505,7.523,7.5253,7.5393,7.5172,7.5175,7.5178,0,7.4402,7.4467,7.4619,7.468,7.4712,7.4782,7.4856,7.492,7.4978,7.499,7.504,7.5034,7.5126,7.5064,7.519,7.5125,7.5165,7.5185,7.5191,7.52,7.513,7.5244,7.5438,7.5459,7.5209,7.5206,7.5204,0,7.4511,7.4637,7.4744,7.4777,7.485,7.49,7.4932,7.4986,7.5032,7.5096,7.5127,7.5199,7.5239,7.5296,7.531,7.5264,7.5436,7.5375,7.5449,7.5448,7.5485,7.5483,7.5689,7.5511,7.5511,7.551,7.551,0,7.4669,7.4763,7.4795,7.4861,7.4965,7.4977,7.508,7.5109,7.5157,7.5228,7.5217,7.5284,7.5299,7.5368,7.538,7.5483,7.5501,7.5513,7.5515,7.5514,7.5513,7.554,7.5531,7.5516,7.5515,7.5514,7.5513,0,7.4808,7.4833,7.495,7.501,7.5027,7.5102,7.5153,7.5216,7.5238,7.5328,7.535,7.5384,7.5465,7.5485,7.5581,7.5589,7.5711,7.5704,7.5693,7.5692,7.5765,7.5758,7.5996,7.6028,7.5829,7.583,7.5832,0,7.4908,7.498,7.5049,7.5097,7.5132,7.5208,7.5257,7.5271,7.5322,7.5393,7.5448,7.5529,7.5594,7.5724,7.5757,7.5831,7.5825,7.5904,7.5836,7.5833,7.5827,7.5823,7.583,7.5916,7.5918,7.592,7.5921,0,7.5082,7.5092,7.5163,7.5239,7.5298,7.5358,7.5415,7.5454,7.5477,7.5534,7.5618,7.5669,7.5769,7.5849,7.5924,7.5955,7.5943,7.5943,7.5964,7.5964,7.5954,7.5961,7.5728,7.5937,7.5935,7.5934,7.5933,7.5933,7.5205,7.5269,7.5328,7.5408,7.5453,7.5507,7.557,7.5601,7.5672,7.5755,7.5759,7.5851,7.5907,7.6006,7.6043,7.6114,7.609,7.612,7.6128,7.6135,7.6142,7.5943,7.6127,7.6127,7.6127,7.6126,7.6126,0,7.5379,7.5417,7.549,7.5572,7.5635,7.5619,7.5682,7.5736,7.5817,7.5871,7.5936,7.6033,7.6111,7.6151,7.6228,7.6277,7.6273,7.6297,7.6293,7.6301,7.6159,7.6133,7.6299,7.6299,7.6299,7.6299,7.6299,7.6299,7.5478,7.5585,7.5602,7.5732,7.5768,7.5859,7.5897,7.5947,7.599,7.6099,7.6165,7.6191,7.6239,7.632,7.6391,7.64,7.6429,7.6456,7.6463,7.6329,7.6311,7.6294,7.627,7.6462,7.6462,7.6599,7.66,7.6601]}]]